Regional Weather Roundup
Issued by NWS

Home | Current Version | Previous Version | Graphics & Text | Print | Product List | Glossary On
Versions: 1 2 3 4 5 6 7 8 9 10 11 12 13 14 15 16 17 18 19 20 21 22 23 24 25 26 27 28 29 30 31 32 33 34 35 36 37 38 39 40 41 42 43 44 45 46 47 48 49 50
000
ASUS43 KMPX 271410
RWRMN
WEATHER ROUNDUP FOR MINNESOTA
NATIONAL WEATHER SERVICE TWIN CITIES/CHANHASSEN MN
800 AM CST MON FEB 27 2017


NOTE: "FAIR" INDICATES FEW OR NO CLOUDS BELOW 12,000 FEET WITH NO
SIGNIFICANT WEATHER AND/OR OBSTRUCTIONS TO VISIBILITY. N/A MEANS
CURRENT SKY AND/OR WEATHER CONDITIONS ARE NOT AVAILABLE.

MNZ060>063-068>070-271500-
   Twin Cities Metro

CITY           SKY/WX    TMP DP  RH WIND       PRES   REMARKS
TWIN CITIES    MOSUNNY   26  19  74 S5        29.96S WCI  20
ST PAUL        PTSUNNY   26  21  81 SE7       29.98S WCI  18
CRYSTAL        SUNNY     26  19  74 S7        29.94R WCI  18
BLAINE         MOSUNNY   27  21  80 S6        29.95R WCI  20
LAKEVILLE      MOSUNNY   27  19  74 SW3       29.97R
EDEN PRAIRIE   SUNNY     26  20  77 S10       29.95R WCI  16
SOUTH ST PAUL  PTSUNNY   27  20  75 S7        29.97S WCI  19
LAKE ELMO      PTSUNNY   27  21  80 S9        29.97S WCI  17
$$
MNZ001>005-007-008-013>017-022>024-027-028-271500-
   Northwest Minnesota

CITY           SKY/WX    TMP DP  RH WIND       PRES   REMARKS
BEMIDJI        CLOUDY     7   4  87 CALM      29.90R
HALLOCK        CLOUDY    12   9  85 S8        29.88S WCI   1
ROSEAU         CLOUDY    10   7  85 S9        29.87S WCI  -2
WARROAD        CLOUDY    12   9  85 S6        29.88R WCI   3
THIEF RVR FALL CLOUDY    10   7  87 CALM      29.90S
CROOKSTON      CLOUDY    12  10  92 S3        29.91S
FOSSTON        CLOUDY    10   7  85 SE3       29.90R
DETROIT LAKES  CLEAR     19  14  79 CALM      29.89S
MOORHEAD       CLEAR     18  12  79 CALM      29.92R
PARK RAPIDS    CLOUDY    18   9  68 SE3       29.89R
MAHNOMEN       PTSUNNY   16  12  84 SE5       29.89S WCI   9
$$
MNZ006-009>011-018-025>026-271500-
   North Central Minnesota

CITY           SKY/WX    TMP DP  RH WIND       PRES   REMARKS
BAUDETTE       CLOUDY     7   3  84 SW3       29.88R
FLAG ISLAND    CLOUDY     9   3  78 S5        29.86S WCI   0
INTL FALLS     CLOUDY     4  -1  80 S3        29.91S
WASKISH        CLOUDY     7   3  85 CALM      29.91R
BIG FORK       CLOUDY     0  -6  78 CALM      29.91S
LONGVILLE      FLURRIES  16  10  79 CALM      29.91S
GRAND RAPIDS   CLOUDY    14   8  77 CALM      29.94R
CRANE LAKE     CLOUDY    -6  -9  84 CALM      29.96S
ORR            CLOUDY     3  -2  78 CALM      29.90S
COOK           CLOUDY    -2  -6  84 CALM      29.93R
WALKER         CLOUDY    15   9  79 CALM      29.90S
$$
MNZ012-019>021-037-271500-
   Northeast Minnesota

CITY           SKY/WX    TMP DP  RH WIND       PRES   REMARKS
DULUTH         CLOUDY    20  11  68 E3        29.92S
ELY            CLOUDY    -2  -6  84 CALM      29.93R
HIBBING        CLOUDY     8   2  76 CALM      29.93R
EVELETH        CLOUDY    10   3  74 CALM      29.94R
DULUTH HARBOR  FLURRIES  19  12  73 CALM      29.99R
TWO HARBORS    CLOUDY    19  12  73 CALM      29.94R
SILVER BAY     CLOUDY    14   9  79 CALM      29.94R
GRAND MARAIS     N/A     19   4  51 CALM      30.01R
G MARAIS ARPRT CLOUDY     3  -6  66 CALM      29.91S
$$
MNZ029>031-032-039>041-046>048-054>057-064-271500-
   West Central Minnesota

CITY           SKY/WX    TMP DP  RH WIND       PRES   REMARKS
FERGUS FALLS   CLEAR     18  12  79 W6        29.94R WCI   9
WHEATON        CLEAR     18  16  93 CALM      29.91S
MORRIS         MOCLDY    21  18  86 E6        29.88R WCI  14
ALEXANDRIA     CLEAR     21  18  88 E7        29.89R WCI  12
ELBOW LAKE     FAIR      17  14  90 SE8       29.89S WCI   6
WADENA         CLEAR     14   9  79 E5        29.89S WCI   6
GLENWOOD       MOCLDY    18  18 100 NE6       29.88S WCI   9
APPLETON       CLEAR     21  21 100 CALM      29.89S
BENSON         CLEAR     25  18  74 CALM      29.91R
ORTONVILLE       N/A     19  18  93 CALM      29.88S
MADISON        CLEAR     23  23 100 CALM      29.89S
WILLMAR        FAIR      27  23  86 S5        29.91R WCI  21
$$
MNZ033>034-036-042>043-049>051-058-059-271500-
   Central Minnesota

CITY           SKY/WX    TMP DP  RH WIND       PRES   REMARKS
ST CLOUD       CLEAR     23  20  88 E7        29.92R WCI  15
SAUK CENTRE    FAIR      18  17  93 CALM      29.90R
PAYNESVILLE    CLEAR     21  19  90 CALM      29.90R
AITKIN         CLOUDY    21  10  63 CALM      29.91S
PINE RIVER     CLOUDY    18  10  73 CALM      29.94F
BRAINERD       CLOUDY    18  12  77 CALM      29.92R
STAPLES        CLEAR     12   9  85 CALM      29.90R
LONG PRAIRIE   FAIR      19  18  93 CALM      29.90S
LITTLE FALLS   CLEAR     21  18  86 CALM      29.91S
LITCHFIELD     CLEAR     27  25  93 CALM      29.91R
BUFFALO        CLEAR     25  21  85 S3        29.94S
MAPLE LAKE     CLEAR     26  25  97 S5        29.93R WCI  20
HUTCHINSON     CLOUDY    26  24  92 S7        29.94R WCI  19
$$
MNZ037-044-045-052-053-271500-
   East Central Minnesota

CITY           SKY/WX    TMP DP  RH WIND       PRES   REMARKS
PRINCETON      CLEAR     25  21  86 CALM      29.93R
MORA           CLOUDY    23  21  93 CALM      29.95S
CAMBRIDGE      SUNNY     27  18  69 CALM      29.92S
RUSH CITY      SUNNY     23  20  88 CALM      29.95R
MOOSE LAKE     LGT SNOW  19  12  73 CALM      29.93R
HINCKLEY       CLOUDY    23  21  93 E3        29.94S
CLOQUET        LGT SNOW  18   7  62 CALM      29.93R
MCGREGOR       CLOUDY    19  12  73 CALM      29.93R
$$
MNZ071>073-080-081-089-090-097-098-271500-
   Southwest Minnesota

CITY           SKY/WX    TMP DP  RH WIND       PRES   REMARKS
MONTEVIDEO     CLEAR     27  23  86 S3        29.91S
GRANITE FALLS  CLEAR     26  23  85 SE6       29.92R WCI  20
CANBY          PTCLDY    28  21  74 CALM      29.89R
MARSHALL       CLOUDY    27  21  78 SW17      29.88S WCI  14
REDWOOD FALLS  CLEAR     26  21  81 E3        29.91S
OLIVIA         CLEAR     28  25  86 S3        29.91R
PIPESTONE      CLOUDY    25  19  80 S5        29.89R WCI  19
WINDOM         CLEAR     28  21  74 S8        29.92S WCI  20
WORTHINGTON    CLEAR     26  20  77 S14       29.92R WCI  14
JACKSON          N/A     23  19  86 S9        29.94R WCI  13
TRACY          PTCLDY    29  24  79 SW13      29.89S WCI  19
SLAYTON        CLOUDY    26  22  83 S17       29.90R WCI  13
$$
MNZ065>067-074>077-082>085-091>093-271500-
   South Central Minnesota

CITY           SKY/WX    TMP DP  RH WIND       PRES   REMARKS
MANKATO          N/A     22  17  81 S8        29.97R WCI  12
NEW ULM        CLEAR     27  21  80 S7        29.93S WCI  19
ST JAMES       CLEAR     27  21  80 S9        29.95S WCI  17
FAIRMONT       SUNNY     20  14  77 S9        29.96S WCI   9
GLENCOE        CLEAR     27  24  89 S7        29.94R WCI  19
FARIBAULT      SUNNY     19  14  79 S3        29.98R
OWATONNA       SUNNY     23  16  74 S12       29.97R WCI  12
WASECA         SUNNY     21  18  86 S7        29.99R WCI  13
ALBERT LEA     CLOUDY    18  16  93 S5        29.98S WCI  11
$$
MNZ078>079-086>088-094>096-271500-
   Southeast Minnesota

CITY           SKY/WX    TMP DP  RH WIND       PRES   REMARKS
ROCHESTER      SUNNY     17  15  92 S10       29.99R WCI   5
RED WING       SUNNY     23  16  74 E6        30.00R WCI  16
STANTON        SUNNY     24  17  75 S8        29.97R WCI  14
WINONA         SUNNY     18  16  93 CALM      30.05S
AUSTIN         CLOUDY    18  16  93 S6        30.00R WCI   9
PRESTON        SUNNY     21  19  90 S9        30.02R WCI  11
$$
ABBREVIATIONS USED IN REMARKS
   TC - TEMPERATURES IN CELSIUS
  WCI - WIND CHILL INDEX
   HX - HEAT INDEX
  VSB - VISIBILITY
$$



USA.gov is the U.S. government's official web portal to all federal, state and local government web resources and services.